This is the latest recevied weather packets stored in our database for station/object KO6TH-15. If no packets are shown the sender has not sent any weather packets the latest 10 day(s).
| Time | Temp. | Humidity | Pressure | Rain* | Wind** | Luminosity | Snow |
|---|---|---|---|---|---|---|---|
| 1778122880 | 17.78° C | 87% | 0 hPa | 0 mm | - | - | - |
| 1778122250 | 18.33° C | 84% | 0 hPa | 0 mm | - | - | - |
| 1778121650 | 18.89° C | 81% | 0 hPa | 0 mm | - | - | - |
| 1778121050 | 19.44° C | 79% | 0 hPa | 0 mm | - | - | - |
| 1778120420 | 20° C | 76% | 0 hPa | 0 mm | - | - | - |
| 1778119790 | 19.44° C | 76% | 0 hPa | 0 mm | - | - | - |
| 1778119160 | 20° C | 76% | 0 hPa | 0 mm | - | - | - |
| 1778118560 | 20° C | 75% | 0 hPa | 0 mm | - | - | - |
| 1778117930 | 20° C | 74% | 0 hPa | 0 mm | - | - | - |
| 1778117300 | 20.56° C | 74% | 0 hPa | 0 mm | - | - | - |
| 1778116670 | 21.11° C | 72% | 0 hPa | 0 mm | - | - | - |
| 1778116040 | 20.56° C | 72% | 0 hPa | 0 mm | - | - | - |
| 1778115440 | 21.11° C | 71% | 0 hPa | 0 mm | - | - | - |
| 1778114810 | 21.11° C | 71% | 0 hPa | 0 mm | - | - | - |
| 1778114180 | 21.67° C | 68% | 0 hPa | 0 mm | - | - | - |
| 1778113550 | 22.22° C | 67% | 0 hPa | 0 mm | - | - | - |
| 1778112920 | 22.22° C | 67% | 0 hPa | 0 mm | - | - | - |
| 1778112290 | 23.33° C | 64% | 0 hPa | 0 mm | - | - | - |
| 1778111660 | 23.33° C | 63% | 0 hPa | 0 mm | - | - | - |
| 1778111030 | 24.44° C | 62% | 0 hPa | 0 mm | - | - | - |
| 1778110400 | 23.33° C | 63% | 0 hPa | 0 mm | - | - | - |
| 1778109800 | 23.89° C | 62% | 0 hPa | 0 mm | - | - | - |
| 1778109170 | 23.89° C | 63% | 0 hPa | 0 mm | - | - | - |
| 1778108540 | 22.78° C | 66% | 0 hPa | 0 mm | - | - | - |
| 1778107910 | 23.89° C | 62% | 0 hPa | 0 mm | - | - | - |
* Rain latest hour (hover to see other rain measurements)
** Current wind speed in m/s (hover to see current wind gust speed)